sat.trackr.live / text

‹ back to catalog

STARLINK-30609

NORAD 58085 · 2023-160L

PAYLOAD ACTIVE UNKNOWN

§ Identity

Operator
Country
US
Launch date
2023-10-18
Launch site
AFETR
Launch vehicle
Mass (kg)
RCS (m²)

Purposes: comms

External: N2YO · Heavens-Above · Gunter

§ Orbital elements

Epoch: 2026-05-24T23:40:00.892416Z

Period
94.27 min
Inclination
43.0053°
Eccentricity
0.0001396
Mean motion
15.27576118 rev/d
Perigee alt
482.1 km
Apogee alt
484.0 km
Semi-major
6,861.2 km
B*
3.5396e-5
RAAN
10.4727°
Arg perigee
271.3344°
Mean anomaly
88.7347°
Rev number
14,457

§ Raw data

STARLINK-306091 58085U 23160L   26144.98612144  .00000712  00000+0  35396-4 0  99992 58085  43.0053  10.4727 0001396 271.3344  88.7347 15.27576118144578

JSON: /api/v1/satellites/58085 · /tle

For live sub-satellite position, see the globe view (requires WebGL).

§ Visibility from observer

Set your observer location to see the next 7 days of passes ≥ 10°. The values pass through the URL so the page stays shareable.

No JS? Fill the form by hand. The geolocation button needs JavaScript.